Miscellaneous Local Product
Issued by NWS Hastings, NE

Home | Current Version | Previous Version | Text Only | Print | Product List | Glossary Off
Versions: 1 2 3 4 5 6 7 8 9 10 11 12 13 14 15 16 17 18 19 20 21 22 23 24 25 26 27 28 29 30 31 32 33 34 35 36 37 38 39 40 41 42 43 44 45 46 47 48 49 50

000
AXUS43 KGID 200202
MISGRI

GID CWA HOURLY WEATHER ROUNDUP
NATIONAL WEATHER SERVICE HASTINGS NE
800 PM CST THU JAN 19 2017

NOTE: "FAIR" INDICATES FEW OR NO CLOUDS BELOW 12,000 FEET WITH NO
SIGNIFICANT WEATHER AND/OR OBSTRUCTIONS TO VISIBILITY.

...SOUTH CENTRAL NEBRASKA...

CITY           SKY/WX    TMP DP  RH WIND       PRES   REMARKS
GRAND ISLAND   CLOUDY    39  39 100 SE6       29.60S FOG     WCI  35
HASTINGS       FOG       40  39  97 SE9       29.60F VSB 1/2 WCI  34
KEARNEY        CLOUDY    39  36  87 S6        29.58S WCI  35
ORD            CLOUDY    40  37  89 S7        29.55F
YORK           FOG       37  37 100 CALM      29.62F VSB 1/4
AURORA         FOG       38  38 100 SE6       29.60F VSB 1/4 WCI  34
LEXINGTON      FOG       38  37  95 S3        29.56S VSB 1/4
HOLDREGE       CLOUDY    39  38  97 SE6       29.56F WCI  34
HEBRON         FOG       40  39  99 CALM      29.63F VSB 1/4

...NEBRASKA PANHANDLE...

CITY           SKY/WX    TMP DP  RH WIND       PRES   REMARKS
CHADRON        CLOUDY    33  25  72 W5        29.50R WCI  29
ALLIANCE       CLOUDY    29  23  78 N3        29.50R
SCOTTSBLUFF    CLEAR     35  24  64 W6        29.51S WCI  30
SIDNEY         CLEAR     32  25  75 W9        29.52S WCI  24

...WESTERN AND NORTH CENTRAL NEBRASKA...

CITY           SKY/WX    TMP DP  RH WIND       PRES   REMARKS
VALENTINE      CLEAR     36  31  82 SW12      29.47F WCI  28
AINSWORTH      CLOUDY    37  37 100 S10       29.50S WCI  29
ONEILL         CLOUDY    41  40  97 S12       29.54F
BROKEN BOW     CLOUDY    40  38  93 S9        29.54F WCI  34
IMPERIAL       FOG       35  34  96 S12       29.55R VSB 1/4 WCI  27
NORTH PLATTE   CLOUDY    38  36  92 SW6       29.55S WCI  33
MCCOOK         FOG       33  33 100 CALM      29.56R VSB 1/4

...EASTERN NEBRASKA...

CITY           SKY/WX    TMP DP  RH WIND       PRES   REMARKS
NORFOLK        CLOUDY    39  37  92 S10       29.60F WCI  32
SO SIOUX CITY  FOG       39  38  96 SE7       29.65F VSB 1/2 WCI  34
TEKAMAH        FOG       37  36  96 E7        29.67S VSB 1/4 WCI  32
COLUMBUS       CLOUDY    39  37  93 SE7       29.63F WCI  34
ALBION         CLOUDY   N/A N/A N/A SE6       29.59F HAZE
OMAHA EPPLEY   FOG       39  35  86 NW3       29.67R VSB 1/4
OFFUTT AFB     DRZL/FOG  40  40 100 CALM      29.66S VSB 1/2
MILLARD        FOG       42  41  97 CALM      29.67R VSB 1/2
LINCOLN        FOG       39  39 100 NE3       29.67R VSB 3/4
NEBRASKA CITY  FOG       40  40 100 CALM      29.66S VSB 1/4
BEATRICE       FOG       40  40 100 CALM      29.65R VSB 1/2
FALLS CITY     FOG       42  42 100 E3        29.64F VSB 1/4

...NORTHERN KANSAS...

CITY           SKY/WX    TMP DP  RH WIND       PRES   REMARKS
GOODLAND       CLOUDY    34  34 100 S8        29.54F FOG     WCI  27
HILL CITY      CLOUDY    41  41 100 SE7       29.57F FOG
NORTON         FOG       36  34  93 SE3       29.55S VSB 1/4
PHILLIPSBURG   FOG       41  41 100 E5        29.58F VSB 1/4
SMITH CENTER   FOG       39  39 100 E7        29.60F VSB 1/2 WCI  34
HAYS           FOG       43  42  97 E7        29.58S VSB 1/2
RUSSELL        FOG       43  43 100 E6        29.57S VSB 1/2
CONCORDIA      FOG       42  42 100 E6        29.62S VSB 1/4
SALINA         CLOUDY    46  43  89 E8        29.62S
TOPEKA         LGT RAIN  46  43  89 E5        29.63F FOG



USA.gov is the U.S. government's official web portal to all federal, state and local government web resources and services.